CW5443 Weather Reports


time (UTC)temp
C
wind
direction
speed
KPH
gust
KPH
rain 1hr
cm
rain 24hr
cm
rain mn
cm
humidity
%
barometer
mb
20260507171959 13 288 3.2 12.9 0.00 0.89 0.00 38 1006.8
20260507170958 15 249 6.4 14.5 0.00 0.91 0.00 39 1007.1
20260507165926 15 267 6.4 20.9 0.00 0.94 0.00 39 1007.1
20260507164926 15 253 8.0 20.9 0.00 0.97 0.00 38 1007.1
20260507163854 15 263 6.4 16.1 0.00 0.97 0.00 42 1007.1
20260507162822 15 254 8.0 16.1 0.00 0.97 0.00 43 1007.1
20260507161821 15 265 4.8 17.7 0.00 0.97 0.00 43 1007.5
20260507160820 15 262 6.4 16.1 0.00 0.97 0.00 44 1007.5
20260507155819 14 252 6.4 20.9 0.00 0.97 0.00 44 1007.5
20260507154819 13 250 6.4 20.9 0.00 0.97 0.00 47 1007.8
20260507153818 14 273 3.2 14.5 0.00 0.97 0.00 44 1007.5
20260507152817 14 269 6.4 12.9 0.00 0.97 0.00 49 1007.5
20260507151816 13 248 8.0 14.5 0.00 0.97 0.00 53 1007.5
20260507150815 13 250 3.2 14.5 0.00 0.97 0.00 54 1007.8
20260507145814 13 252 3.2 11.3 0.00 0.97 0.00 49 1007.8
20260507144813 13 304 4.8 17.7 0.00 0.97 0.00 49 1007.8
20260507143812 12 254 3.2 17.7 0.00 0.97 0.00 58 1007.8
20260507142812 12 258 4.8 12.9 0.00 0.97 0.00 61 1007.8
20260507141811 12 267 3.2 16.1 0.00 0.97 0.00 65 1007.8
20260507140810 11 272 3.2 16.1 0.00 0.97 0.00 66 1007.8
20260507135707 12 258 4.8 11.3 0.00 0.97 0.00 68 1007.8
20260507134636 11 256 4.8 11.3 0.00 0.97 0.00 72 1007.8
20260507133635 11 264 3.2 8.0 0.00 0.97 0.00 73 1008.1
20260507132634 10 249 3.2 8.0 0.00 0.97 0.00 77 1008.1
20260507131633 9 243 3.2 12.9 0.00 0.97 0.00 78 1008.1
20260507130633 8 241 4.8 12.9 0.00 0.97 0.00 79 1008.1
20260507125529 8 163 3.2 8.0 0.00 0.97 0.00 79 1008.5
20260507124529 8 130 0.0 3.2 0.00 0.97 0.00 80 1008.5
20260507123528 8 120 0.0 3.2 0.00 0.97 0.00 80 1008.1
20260507122527 8 115 1.6 3.2 0.00 0.97 0.00 80 1008.1
20260507121527 8 115 0.0 0.0 0.00 0.97 0.00 80 1008.1
20260507120526 7 115 0.0 0.0 0.00 0.97 0.00 80 1008.1
20260507115525 7 114 0.0 0.0 0.00 0.97 0.00 80 1008.5
20260507114524 6 114 0.0 0.0 0.00 0.97 0.00 79 1008.5
20260507113523 6 114 0.0 0.0 0.00 0.97 0.00 79 1008.1
20260507112523 5 114 0.0 0.0 0.00 0.97 0.00 79 1008.1
20260507111522 5 114 0.0 0.0 0.00 0.97 0.00 78 1008.1
20260507110450 5 115 0.0 0.0 0.00 0.97 0.00 78 1008.1
20260507105449 5 115 0.0 0.0 0.00 0.97 0.00 78 1008.1
20260507104448 5 117 0.0 0.0 0.00 0.99 0.00 78 1008.5
20260507103447 5 117 0.0 0.0 0.00 0.99 0.00 78 1008.1
20260507102415 5 117 0.0 0.0 0.00 0.99 0.00 78 1007.8
20260507101414 5 117 0.0 0.0 0.00 0.99 0.00 78 1007.8
20260507100413 5 117 0.0 0.0 0.00 0.99 0.00 78 1007.8
20260507095413 5 117 0.0 0.0 0.00 0.99 0.00 78 1008.1
20260507094412 5 117 0.0 0.0 0.00 0.99 0.00 78 1008.1
20260507093411 5 117 0.0 1.6 0.00 0.99 0.00 78 1008.1
20260507092409 5 117 0.0 1.6 0.00 0.99 0.00 78 1008.5
20260507091408 6 261 0.0 1.6 0.00 0.99 0.00 78 1008.1
20260507090407 6 261 0.0 1.6 0.00 0.99 0.00 78 1007.8
20260507085406 6 261 0.0 1.6 0.00 0.99 0.00 78 1007.8
20260507084406 6 261 0.0 0.0 0.00 0.99 0.00 78 1008.1
20260507083303 6 261 0.0 0.0 0.00 0.99 0.00 79 1007.8
20260507082305 6 261 0.0 0.0 0.00 0.99 0.00 79 1007.8
20260507081229 7 261 0.0 0.0 0.00 0.99 0.00 79 1007.8
20260507080229 7 261 0.0 0.0 0.00 0.99 0.00 79 1007.8
20260507075228 7 261 0.0 0.0 0.00 0.99 0.00 79 1007.8
20260507074228 7 261 0.0 3.2 0.00 0.99 0.00 79 1007.8
20260507073227 7 261 0.0 4.8 0.00 0.99 0.00 79 1007.5
20260507072226 7 261 0.0 4.8 0.00 0.99 0.00 79 1007.1
20260507071225 7 261 3.2 4.8 0.00 0.99 0.00 79 1006.8
20260507070224 7 261 1.6 3.2 0.00 0.99 0.00 79 1007.1
20260507065152 7 261 0.0 3.2 0.00 0.99 0.00 79 1007.1
20260507064119 7 261 1.6 4.8 0.00 0.99 0.00 79 1007.5
20260507063119 7 261 1.6 4.8 0.00 0.99 0.00 79 1007.1
20260507062118 7 261 3.2 4.8 0.00 0.99 0.00 79 1007.1
20260507061117 7 261 3.2 6.4 0.00 0.99 0.00 79 1007.1
20260507060045 7 261 3.2 6.4 0.00 0.99 0.00 79 1006.8
20260507055044 8 261 4.8 9.7 0.00 0.99 0.00 79 1007.1
20260507054012 8 259 6.4 9.7 0.00 0.99 0.00 79 1007.1
20260507053012 8 253 4.8 6.4 0.00 0.99 0.00 79 1007.1
20260507052011 8 253 3.2 4.8 0.00 0.99 0.00 79 1007.1
20260507050939 8 253 1.6 3.2 0.00 0.99 0.00 79 1007.1
20260507045836 8 253 0.0 3.2 0.00 0.99 0.00 79 1007.1
20260507044835 8 253 1.6 3.2 0.00 0.99 0.00 79 1006.8
20260507043834 8 253 1.6 3.2 0.00 0.99 0.00 79 1007.1
20260507042833 8 253 1.6 4.8 0.00 0.99 0.00 79 1006.8
20260507041833 8 253 1.6 4.8 0.03 0.99 0.00 79 1006.8
20260507040832 8 253 3.2 4.8 0.03 0.99 0.00 79 1006.8
20260507035831 8 253 1.6 4.8 0.03 0.99 0.99 79 1006.8
20260507034831 8 253 3.2 6.4 0.05 0.99 0.99 79 1006.8
20260507033830 8 252 3.2 6.4 0.05 0.99 0.99 79 1006.8
20260507032829 8 252 3.2 6.4 0.05 0.99 0.99 79 1007.1
20260507031828 9 252 3.2 6.4 0.03 0.97 0.97 79 1007.1
20260507030827 9 252 1.6 9.7 0.03 0.97 0.97 79 1006.8
20260507025826 9 255 3.2 11.3 0.03 0.99 0.97 79 1006.8
20260507024825 10 259 3.2 11.3 0.03 0.97 0.94 79 1006.8
20260507023825 10 264 4.8 6.4 0.03 0.97 0.94 79 1006.8
20260507022824 10 261 3.2 9.7 0.05 0.97 0.94 79 1006.8
20260507021752 10 262 4.8 9.7 0.05 0.97 0.94 79 1006.8
20260507020751 10 262 3.2 6.4 0.05 0.97 0.94 79 1006.8
20260507015648 10 263 1.6 4.8 0.05 0.97 0.94 79 1006.4
20260507014647 11 263 3.2 4.8 0.03 0.94 0.91 79 1006.4
20260507013544 11 263 3.2 6.4 0.03 0.94 0.91 79 1006.4
20260507012544 11 263 1.6 6.4 0.03 0.91 0.89 79 1006.1
20260507011543 11 263 3.2 6.4 0.05 0.91 0.89 79 1005.8
20260507010542 11 232 1.6 6.4 0.05 0.91 0.89 79 1005.8
20260507005509 11 225 1.6 6.4 0.05 0.91 0.89 79 1005.4
20260507004509 11 221 3.2 9.7 0.08 0.91 0.89 79 1005.4
20260507003508 12 252 1.6 9.7 0.10 0.91 0.89 79 1005.4
20260507002508 12 199 3.2 6.4 0.08 0.89 0.86 79 1005.1
20260507001507 12 141 3.2 9.7 0.05 0.86 0.84 79 1005.1
20260507000506 13 143 1.6 11.3 0.05 0.86 0.84 79 1004.7
20260506235505 15 132 3.2 9.7 0.10 0.86 0.84 80 1004.4
20260506234505 16 219 0.0 4.8 0.08 0.81 0.79 81 1004.1
20260506233433 16 91 0.0 3.2 0.13 0.81 0.79 81 1004.1
20260506232432 16 91 0.0 3.2 0.13 0.81 0.79 81 1003.7
20260506231431 16 91 0.0 3.2 0.15 0.81 0.79 81 1003.7
20260506230431 16 91 0.0 3.2 0.13 0.79 0.76 81 1004.1
20260506225430 16 92 0.0 3.2 0.10 0.76 0.74 81 1004.1
20260506224429 16 91 0.0 3.2 0.08 0.74 0.74 81 1003.7
20260506223428 16 91 0.0 1.6 0.03 0.71 0.69 81 1003.7
20260506222428 16 91 0.0 4.8 0.03 0.71 0.69 81 1003.7
20260506221427 16 91 0.0 4.8 0.00 0.69 0.66 81 1003.7
20260506220426 16 110 1.6 4.8 0.00 0.71 0.66 81 1003.7
20260506215323 16 111 1.6 4.8 0.03 0.74 0.66 81 1003.7
20260506214322 16 111 1.6 6.4 0.05 0.74 0.66 80 1003.7
20260506213322 16 112 1.6 6.4 0.05 0.81 0.66 80 1003.7
20260506212321 16 59 1.6 4.8 0.08 0.86 0.66 80 1004.1
20260506211249 16 64 1.6 4.8 0.08 0.86 0.66 80 1004.1
20260506210248 16 65 1.6 4.8 0.08 0.84 0.64 80 1004.1
20260506205216 16 65 1.6 14.5 0.10 0.84 0.64 80 1004.1
20260506204215 16 62 3.2 14.5 0.08 0.81 0.61 80 1004.1
20260506203214 16 50 1.6 12.9 0.13 0.81 0.61 80 1004.1
20260506202213 16 67 1.6 8.0 0.15 0.79 0.58 80 1004.4
20260506201213 16 69 3.2 8.0 0.20 0.79 0.58 80 1004.4
20260506200212 16 53 3.2 8.0 0.20 0.76 0.56 80 1004.4
20260506195211 17 51 1.6 8.0 0.20 0.74 0.53 80 1004.7
20260506194210 17 65 3.2 6.4 0.23 0.74 0.53 80 1004.7
20260506193209 16 68 0.0 4.8 0.18 0.69 0.46 79 1005.1
20260506192137 17 68 0.0 6.4 0.15 0.64 0.43 79 1005.1
20260506191136 17 67 0.0 8.0 0.13 0.58 0.38 79 1005.1
20260506190135 17 61 3.2 9.7 0.15 0.56 0.36 79 1005.1
20260506185135 17 47 3.2 9.7 0.13 0.51 0.30 79 1005.1
20260506184103 17 46 1.6 9.7 0.15 0.51 0.30 78 1005.4
20260506183031 17 74 3.2 6.4 0.15 0.48 0.28 78 1005.4
20260506182030 17 57 1.6 16.1 0.20 0.48 0.28 78 1005.4
20260506181030 17 70 0.0 16.1 0.18 0.43 0.23 78 1005.8
20260506180029 17 54 1.6 6.4 0.18 0.43 0.20 77 1006.1
20260506175028 17 55 4.8 6.4 0.15 0.41 0.18 77 1006.1
20260506174028 17 44 0.0 3.2 0.15 0.36 0.15 77 1006.1
20260506173026 17 44 1.6 3.2 0.13 0.33 0.13 77 1006.1